FW2489 Weather Reports


time (UTC)temp
F
wind
direction
speed
knots
gust
knots
rain 1hr
in
rain 24hr
in
rain mn
in
humidity
%
barometer
mb
20260506222829 61 242 11.3 24.3 0.00 0.00 0.00 79 1019.3
20260506222306 62 249 13.9 26.1 0.00 0.00 0.00 79 1019.3
20260506220835 62 288 10.4 24.3 0.00 0.00 0.00 79 1019.6
20260506215833 62 239 15.6 28.7 0.00 0.00 0.00 78 1019.6
20260506214833 62 256 17.4 28.7 0.00 0.00 0.00 79 1019.6
20260506214323 62 265 12.2 28.7 0.00 0.00 0.00 79 1019.9
20260506212829 62 271 15.6 30.4 0.00 0.00 0.00 79 1019.9
20260506212317 61 309 16.5 28.7 0.00 0.00 0.00 79 1019.9
20260506210825 61 295 14.8 34.8 0.00 0.00 0.00 80 1019.9
20260506210301 61 283 18.2 28.7 0.00 0.00 0.00 80 1019.9
20260506204822 61 272 17.4 30.4 0.00 0.00 0.00 80 1019.9
20260506203809 61 269 24.3 34.8 0.00 0.00 0.00 81 1019.9
20260506202809 62 253 24.3 0.0 0.00 0.00 0.00 79 1019.9
20260506201701 62 237 13.0 30.4 0.00 0.00 0.00 80 1019.9
20260506201146 62 272 9.6 41.7 0.00 0.00 0.00 79 1019.9
20260506200145 61 263 13.0 33.0 0.00 0.00 0.00 79 1019.9
20260506195144 62 264 24.3 34.8 0.00 0.00 0.00 78 1019.9
20260506194140 61 245 18.2 30.4 0.00 0.00 0.00 78 1020.3
20260506192705 61 255 20.0 30.4 0.00 0.00 0.00 79 1020.3
20260506191701 62 320 13.9 30.4 0.00 0.00 0.00 79 1020.3
20260506190702 61 279 13.0 33.0 0.00 0.00 0.00 80 1019.9
20260506185701 61 281 11.3 28.7 0.00 0.00 0.00 78 1020.3
20260506185152 61 266 19.1 26.1 0.00 0.00 0.00 78 1020.3
20260506183707 61 249 11.3 28.7 0.00 0.00 0.00 81 1020.3
20260506183114 61 267 15.6 0.0 0.00 0.00 0.00 78 1020.3
20260506181751 61 277 12.2 24.3 0.00 0.00 0.00 78 1020.3
20260506180744 61 233 12.2 26.1 0.00 0.00 0.00 80 1020.6
20260506175737 61 256 14.8 21.7 0.00 0.00 0.00 77 1020.3
20260506174731 61 279 13.0 24.3 0.00 0.00 0.00 77 1020.3
20260506173729 61 263 14.8 21.7 0.00 0.00 0.00 77 1020.3
20260506172729 61 258 13.0 21.7 0.00 0.00 0.00 75 1020.3
20260506171732 62 297 12.2 24.3 0.00 0.00 0.00 74 1020.3
20260506170729 61 232 13.0 21.7 0.00 0.00 0.00 76 1019.9
20260506170203 62 259 15.6 21.7 0.00 0.00 0.00 74 1019.9
20260506164732 62 246 12.2 21.7 0.00 0.00 0.00 75 1019.9
20260506163729 62 237 10.4 17.4 0.00 0.00 0.00 76 1019.9
20260506162729 62 247 11.3 14.8 0.00 0.00 0.00 75 1019.9
20260506161729 61 249 9.6 14.8 0.00 0.00 0.00 77 1019.9
20260506160729 61 266 7.0 11.3 0.00 0.00 0.00 77 1019.9
20260506155732 60 282 5.2 13.0 0.00 0.00 0.00 76 1020.3
20260506154728 60 256 9.6 11.3 0.00 0.00 0.00 77 1019.9
20260506153730 59 261 7.8 8.7 0.00 0.00 0.00 78 1019.9
20260506152729 59 350 4.3 7.0 0.00 0.00 0.00 79 1020.3
20260506151730 57 359 1.7 4.3 0.00 0.00 0.00 80 1020.3
20260506150729 56 18 0.0 4.3 0.00 0.00 0.00 83 1020.3
20260506145729 55 321 4.3 4.3 0.00 0.00 0.00 86 1020.3
20260506144734 55 48 0.0 0.0 0.00 0.00 0.00 89 1020.3
20260506143730 53 47 0.0 0.0 0.00 0.00 0.00 91 1019.9
20260506142717 52 47 0.0 0.0 0.00 0.00 0.00 93 1019.9
20260506141712 50 46 0.0 4.3 0.00 0.00 0.00 94 1019.9
20260506140711 50 54 0.0 4.3 0.00 0.00 0.00 95 1019.6
20260506135707 49 54 0.0 1.7 0.00 0.00 0.00 95 1019.6
20260506134703 49 57 0.9 7.0 0.00 0.00 0.00 95 1019.6
20260506133705 48 61 1.7 4.3 0.00 0.00 0.00 95 1019.6
20260506132700 48 51 0.0 4.3 0.00 0.00 0.00 95 1019.6
20260506131704 48 49 0.0 7.0 0.00 0.00 0.00 95 1019.6
20260506130703 48 58 0.0 0.0 0.00 0.00 0.00 95 1019.3
20260506124701 48 69 0.0 0.0 0.00 0.00 0.00 95 1019.3
20260506123701 48 37 0.0 0.0 0.00 0.00 0.00 95 1019.3
20260506121703 48 32 1.7 1.7 0.00 0.00 0.00 95 1019.3
20260506120703 48 63 0.9 7.0 0.00 0.00 0.00 95 1018.9
20260506115703 48 51 0.9 7.0 0.00 0.00 0.00 95 1018.9
20260506114700 48 61 3.5 8.7 0.00 0.00 0.00 95 1018.9
20260506113701 49 55 1.7 8.7 0.00 0.00 0.00 95 1019.3
20260506112701 49 59 1.7 7.0 0.00 0.00 0.00 95 1018.9
20260506111702 48 62 1.7 4.3 0.00 0.00 0.00 95 1018.9
20260506111140 48 53 0.0 1.7 0.00 0.00 0.00 94 1019.3
20260506105701 50 63 0.0 0.0 0.00 0.00 0.00 94 1018.9
20260506104706 50 64 0.0 0.0 0.00 0.00 0.00 95 1019.3
20260506103707 49 66 0.0 0.0 0.00 0.00 0.00 94 1019.3
20260506102704 49 62 0.0 0.0 0.00 0.00 0.00 94 1019.3
20260506101704 50 65 0.0 0.0 0.00 0.00 0.00 94 1019.3
20260506100701 51 63 0.0 0.0 0.00 0.00 0.00 94 1019.3
20260506095704 51 63 0.0 0.0 0.00 0.00 0.00 94 1018.9
20260506094701 51 63 0.0 0.0 0.00 0.00 0.00 94 1019.3
20260506093701 51 64 0.0 4.3 0.00 0.00 0.00 94 1018.9
20260506092704 52 54 0.0 1.7 0.00 0.00 0.00 94 1018.9
20260506091707 52 57 0.0 7.0 0.00 0.00 0.00 94 1018.9
20260506090704 52 66 0.0 7.0 0.00 0.00 0.00 93 1019.3
20260506085704 52 58 0.0 0.0 0.00 0.00 0.00 93 1019.3
20260506084706 52 54 0.0 0.0 0.00 0.00 0.00 93 1019.3
20260506083156 53 52 0.0 0.0 0.00 0.00 0.00 93 1019.3
20260506081705 53 52 0.0 0.0 0.00 0.00 0.00 92 1019.6
20260506080700 53 52 0.0 0.0 0.00 0.00 0.00 92 1019.3
20260506072705 54 61 0.0 0.0 0.00 0.00 0.00 91 1019.3
20260506071700 55 58 0.0 4.3 0.00 0.00 0.00 91 1019.3
20260506070707 55 187 0.0 4.3 0.00 0.00 0.00 91 1019.3
20260506061702 55 248 5.2 11.3 0.00 0.00 0.00 90 1018.9
20260506060704 56 238 5.2 11.3 0.00 0.00 0.00 90 1019.3
20260506060146 56 243 7.8 11.3 0.00 0.00 0.00 90 1018.9
20260506050708 56 343 1.7 7.0 0.00 0.00 0.00 88 1018.9
20260506043702 56 294 4.3 13.0 0.00 0.00 0.00 88 1018.2
20260506042701 56 281 3.5 8.7 0.00 0.00 0.00 88 1018.2
20260506041702 56 287 5.2 8.7 0.00 0.00 0.00 88 1018.2
20260506040705 56 329 4.3 11.3 0.00 0.00 0.00 88 1018.2
20260506035705 57 260 5.2 14.8 0.00 0.00 0.00 88 1017.9
20260506035149 57 326 7.8 14.8 0.00 0.00 0.00 88 1017.9
20260506033710 57 268 7.0 14.8 0.00 0.00 0.00 88 1017.9
20260506032700 57 257 7.0 17.4 0.00 0.00 0.00 87 1017.9
20260506032149 57 277 8.7 21.7 0.00 0.00 0.00 86 1017.6
20260506030701 57 278 13.9 20.0 0.00 0.00 0.00 86 1017.6
20260506025705 57 241 9.6 17.4 0.00 0.00 0.00 85 1017.2
20260506024707 58 257 5.2 14.8 0.00 0.00 0.00 84 1017.2
20260506023707 58 265 10.4 21.7 0.00 0.00 0.00 84 1017.2
20260506022700 58 256 5.2 21.7 0.00 0.00 0.00 84 1016.9
20260506021707 59 263 13.9 24.3 0.00 0.00 0.00 83 1017.2
20260506020704 59 256 20.0 26.1 0.00 0.00 0.00 82 1016.9
20260506015706 59 286 10.4 24.3 0.00 0.00 0.00 80 1016.9
20260506014702 59 264 9.6 24.3 0.00 0.00 0.00 80 1017.2
20260506013701 59 266 12.2 21.7 0.00 0.00 0.00 81 1016.9
20260506013157 59 242 13.9 24.3 0.00 0.00 0.00 80 1016.9
20260506011701 59 277 10.4 24.3 0.00 0.00 0.00 79 1016.9
20260506011159 59 309 11.3 24.3 0.00 0.00 0.00 78 1017.2
20260506010157 60 258 19.1 21.7 0.00 0.00 0.00 76 1017.2
20260506005156 59 273 11.3 26.1 0.00 0.00 0.00 76 1016.9
20260506002701 60 249 13.9 21.7 0.00 0.00 0.00 76 1017.2
20260506001706 60 250 13.9 21.7 0.00 0.00 0.00 75 1016.9
20260506000701 60 277 17.4 28.7 0.00 0.00 0.00 77 1016.9
20260505235658 61 265 13.9 24.3 0.00 0.00 0.00 77 1017.2
20260505234805 61 252 13.0 0.0 0.00 0.00 0.00 77 1017.2
20260505233548 61 257 13.9 0.0 0.00 0.00 0.00 75 1013.9
20260505233317 61 255 20.0 26.1 0.00 0.00 0.00 75 1013.9
20260505233059 61 277 12.2 0.0 0.00 0.00 0.00 74 1013.6
20260505232340 61 256 12.2 0.0 0.00 0.00 0.00 74 1013.6
20260505231018 61 252 13.0 0.0 0.00 0.00 0.00 76 1013.6
20260505230657 61 223 13.9 0.0 0.00 0.00 0.00 75 1013.9
20260505230107 61 234 17.4 0.0 0.00 0.00 0.00 75 1013.9
20260505225305 61 263 11.3 0.0 0.00 0.00 0.00 76 1013.9
20260505224151 61 232 19.1 26.1 0.00 0.00 0.00 74 1013.9